This is the latest recevied weather packets stored in our database for station/object IW8RUI-5. If no packets are shown the sender has not sent any weather packets the latest 10 day(s).
| Time | Temp. | Humidity | Pressure | Rain* | Wind** | Luminosity | Snow |
|---|---|---|---|---|---|---|---|
| 1777916366 | 15.56° C | 10% | 1013 hPa | 0 mm | - | - | - |
| 1777916066 | 15.56° C | 11% | 1013 hPa | 0 mm | - | - | - |
| 1777915766 | 16.11° C | 11% | 1013 hPa | 0 mm | - | - | - |
| 1777915466 | 16.67° C | 11% | 1013 hPa | 0 mm | - | - | - |
| 1777915165 | 17.22° C | 10% | 1013 hPa | 0 mm | - | - | - |
| 1777914866 | 17.22° C | 10% | 1013 hPa | 0 mm | - | - | - |
| 1777914566 | 16.67° C | 10% | 1013 hPa | 0 mm | - | - | - |
| 1777913966 | 15.56° C | 10% | 1013 hPa | 0 mm | - | - | - |
| 1777913366 | 15° C | 10% | 1013 hPa | 0 mm | - | - | - |
| 1777913066 | 15° C | 10% | 1012 hPa | 0 mm | - | - | - |
| 1777912766 | 14.44° C | 10% | 1012 hPa | 0 mm | - | - | - |
| 1777912466 | 15° C | 12% | 1012 hPa | 0 mm | - | - | - |
| 1777912166 | 15° C | 12% | 1013 hPa | 0 mm | - | - | - |
| 1777911566 | 15.56° C | 11% | 1013 hPa | 0 mm | - | - | - |
| 1777910666 | 17.78° C | 13% | 1013 hPa | 0 mm | - | - | - |
| 1777910066 | 17.78° C | 13% | 1013 hPa | 0 mm | - | - | - |
| 1777909166 | 17.22° C | 16% | 1013 hPa | 0 mm | - | - | - |
| 1777908866 | 17.78° C | 15% | 1013 hPa | 0 mm | - | - | - |
| 1777908565 | 17.78° C | 15% | 1013 hPa | 0 mm | - | - | - |
| 1777907966 | 16.67° C | 16% | 1013 hPa | 0 mm | - | - | - |
| 1777907366 | 16.11° C | 16% | 1013 hPa | 0 mm | - | - | - |
| 1777906466 | 16.11° C | 16% | 1013 hPa | 0 mm | - | - | - |
| 1777905565 | 16.11° C | 13% | 1013 hPa | 0 mm | - | - | - |
| 1777904965 | 16.11° C | 13% | 1013 hPa | 0 mm | - | - | - |
| 1777903766 | 15.56° C | 14% | 1013 hPa | 0 mm | - | - | - |
* Rain latest hour (hover to see other rain measurements)
** Current wind speed in m/s (hover to see current wind gust speed)